This demonstration page uses our WeatherBlox Daily Observations layout. Learn more.

Left ArrowRight Arrow

39.01783, -85.05884

Hourly Observations for December 29, 2017

Temp ( °F °C ) Dew Point ( °F °C ) Humidity (%) Winds ( mph kmh ) Pressure ( in mb ) Visibility ( mi km ) Precip ( " mm )
12:52 am 00:52 Cloudy 17 -8.3 9 -12.8 70 70 Calm 30.39 1029 10 16 0.00 0.00
1:52 am 01:52 Cloudy 17 -8.3 9 -12.8 70 70 S 5 7 30.36 1028 10 16 0.00 0.00
2:52 am 02:52 Cloudy 17 -8.3 8 -13.3 68 68 SW 6 9 30.38 1029 10 16 0.00 0.00
3:52 am 03:52 Cloudy 18 -7.8 10 -12.2 71 71 SW 6 9 30.37 1029 10 16 0.00 0.00
4:52 am 04:52 Cloudy 19 -7.2 10 -12.2 68 68 WSW 5 7 30.37 1028 10 16 0.00 0.00
5:52 am 05:52 Cloudy 20 -6.7 10 -12.2 65 65 WSW 7 11 30.37 1029 10 16 0.00 0.00
6:17 am 06:17 Cloudy 20 -6.7 10 -12.2 65 65 W 10 17 30.45 1031 10 16 0.00 0.00
6:52 am 06:52 Cloudy 20 -6.7 10 -12.2 65 65 W 8 13 30.38 1029 10 16 0.00 0.00
7:52 am 07:52 Cloudy 20 -6.7 10 -12.2 65 65 W 8 13 30.39 1029 10 16 0.00 0.00
8:52 am 08:52 Cloudy 20 -6.7 11 -11.7 68 68 W 10 17 30.42 1030 10 16 0.00 0.00
9:52 am 09:52 Mostly Cloudy 22 -5.6 12 -11.1 66 66 W 14 22 30.41 1030 10 16 0.00 0.03
10:34 am 10:34 Mostly Cloudy 23 -5 12 -11.1 63 63 W 12 19 30.48 1032 10 16 0.00 0.00
10:52 am 10:52 Partly Cloudy 24 -4.4 12 -11.1 60 60 W 13 20 30.41 1030 10 16 0.00 0.00
11:52 am 11:52 Mostly Cloudy 25 -3.9 13 -10.6 60 60 SW 8 13 30.39 1029 10 16 0.00 0.00
12:52 pm 12:52 Cloudy 27 -2.8 14 -10 58 58 W 7 11 30.34 1028 10 16 0.00 0.00
1:52 pm 13:52 Cloudy 26 -3.3 13 -10.6 57 57 W 6 9 30.33 1027 10 16 0.00 0.00
2:52 pm 14:52 Cloudy 27 -2.8 14 -10 58 58 W 3 6 30.31 1027 10 16 0.00 0.00
3:52 pm 15:52 Cloudy 27 -2.8 15 -9.4 61 61 W 7 11 30.30 1026 10 16 0.00 0.00
4:06 pm 16:06 Cloudy with Light Snow 26 -3.3 16 -8.9 66 66 Calm 30.33 1027 3 5 0.00 0.03
4:11 pm 16:11 Cloudy with Light Snow 26 -3.3 16 -8.9 66 66 W 5 7 30.33 1027 2 3 0.00 0.03
4:22 pm 16:22 Cloudy with Light Snow 25 -3.9 18 -7.8 75 75 SW 6 9 30.33 1027 2 3 0.00 0.03
4:29 pm 16:29 Cloudy with Light Snow 25 -3.9 19 -7.2 78 78 W 3 6 30.33 1027 1 2 0.00 0.03
4:38 pm 16:38 Mostly Cloudy with Light Snow 24 -4.4 20 -6.7 84 84 SSW 5 7 30.33 1027 1 1 0.01 0.25
4:52 pm 16:52 Mostly Cloudy with Light Snow 24 -4.4 21 -6.1 88 88 SE 3 6 30.28 1025 1 1 0.01 0.25
5:20 pm 17:20 Mostly Cloudy with Snow 23 -5 22 -5.6 96 96 Calm 30.30 1026 1 1 0.02 0.51
5:31 pm 17:31 Cloudy with Light Snow 23 -5 23 -5 100 100 Calm 30.30 1026 1 1 0.02 0.51
5:41 pm 17:41 Cloudy with Light Snow 24 -4.4 22 -5.6 91 91 SW 5 7 30.30 1026 1 1 0.03 0.76
5:52 pm 17:52 Cloudy with Light Snow 24 -4.4 23 -5 96 96 W 5 7 30.28 1026 1 1 0.03 0.76
5:56 pm 17:56 Cloudy with Light Snow 24 -4.4 23 -5 96 96 WSW 6 9 30.33 1027 2 3 0.00 0.03
6:44 pm 18:44 Cloudy with Light Snow 24 -4.4 23 -5 96 96 W 5 7 30.30 1026 2 3 0.02 0.51
6:52 pm 18:52 Cloudy with Light Snow 24 -4.4 23 -5 96 96 W 6 9 30.28 1026 2 3 0.02 0.51
7:16 pm 19:16 Cloudy with Light Snow 24 -4.4 23 -5 96 96 WNW 3 6 30.30 1026 3 5 0.00 0.03
7:52 pm 19:52 Cloudy with Light Snow 24 -4.4 23 -5 96 96 N 3 6 30.26 1025 5 8 0.00 0.03
8:52 pm 20:52 Cloudy with Mist and Fog 23 -5 23 -5 100 100 ENE 3 6 30.24 1024 5 8 0.00 0.03
9:26 pm 21:26 Cloudy with Mist and Fog 24 -4.4 22 -5.6 91 91 NE 5 7 30.24 1024 5 8 0.00 0.00
9:52 pm 21:52 Cloudy with Mist and Fog 23 -5 22 -5.6 96 96 N 6 9 30.22 1023 6 10 0.00 0.00
10:52 pm 22:52 Cloudy with Mist and Fog 23 -5 21 -6.1 92 92 Calm 30.20 1023 6 10 0.00 0.00
11:52 pm 23:52 Cloudy with Mist and Fog 23 -5 21 -6.1 92 92 Calm 30.18 1022 6 10 0.00 0.00

Powered by AerisWeather